Overview Statistics Trail Chart Weather Telemetry Raw packets
 

This is the latest recevied weather packets stored in our database for station/object IW9CSJ-13. If no packets are shown the sender has not sent any weather packets the latest 10 day(s).

<< 6 7 8 9 10 11 12 >>
Time Temp. Humidity Pressure Rain* Wind** Luminosity Snow
1788006920 31.67° C 63% 1017.1 hPa 0 mm - - -
1788006621 31.67° C 63% 1017 hPa 0 mm - - -
1788003019 32.78° C 60% 1016.8 hPa 0 mm - - -
1788002721 33.33° C 58% 1016.8 hPa 0 mm - - -
1788002122 33.89° C 55% 1016.7 hPa 0 mm - - -
1788001821 33.89° C 53% 1016.6 hPa 0 mm - - -
1788001221 34.44° C 48% 1016.6 hPa 0 mm - - -
1788000921 34.44° C 45% 1016.4 hPa 0 mm - - -
1787999420 35° C 45% 1016.4 hPa 0 mm - - -
1787988920 31.11° C 52% 1015.7 hPa 0 mm - - -
1787934621 32.22° C 42% 1017 hPa 0 mm - - -
1787852720 29.44° C 64% 1018.1 hPa 0 mm - - -
1787851221 30° C 60% 1018.1 hPa 0 mm - - -
1787850020 30.56° C 61% 1017.9 hPa 0 mm - - -
1787848821 30.56° C 60% 1018.1 hPa 0 mm - - -
1787847920 30° C 61% 1018.2 hPa 0 mm - - -
1787847321 30° C 60% 1018.3 hPa 0 mm - - -
1787844020 30° C 61% 1018.2 hPa 0 mm - - -
1787843721 30° C 62% 1018.1 hPa 0 mm - - -
1787839220 30° C 70% 1017.9 hPa 0 mm - - -
1787838920 30° C 71% 1017.8 hPa 0 mm - - -
1787838320 30° C 73% 1017.9 hPa 0 mm - - -
1787838021 30° C 73% 1017.9 hPa 0 mm - - -
1787837721 30° C 74% 1017.9 hPa 0 mm - - -
1787829020 33.89° C 40% 1018.6 hPa 0 mm - - -

* Rain latest hour (hover to see other rain measurements)
** Current wind speed in m/s (hover to see current wind gust speed)